Location: Oberwangen
(47.4286°N, 8.9679°E)
Time: 06:55:56
(UTC+00:00)

Cosmos 1900 - Pass Details

Date: 20 June 2021
Orbit: 691 x 731 km, 66.1° (Epoch: 28 July)

Event Time Altitude Azimuth Distance (km) Brightness Sun altitude
Rises 20:32:15 0° 323° (NW) 3,090 10.1 -9.1°
Reaches altitude 10° 20:34:37 10° 321° (NW) 2,164 8.5 -9.3°
Maximum altitude 20:39:30 70° 238° (WSW) 739 4.5 -9.9°
Enters shadow 20:43:49 13° 156° (SSE) 1,941 6.0 -10.3°
